Huntington, WV

8:26 AM EDT on April 25, 2018 (GMT -0400)
Tri-State / Ferguson

Weather History for KHTS - April, 2011

Change the Weather History Date:

Saturday, April 30, 2011

  Actual Average Record
Temperature  
Mean Temperature 57 °F 60 °F  
Max Temperature 75 °F 72 °F 92 °F (1942)
Min Temperature 38 °F 49 °F 30 °F (2008)
Degree Days  
Heating Degree Days 8 6  
Month to date heating degree days 213 291  
Since 1 July heating degree days 4507 4388  
Cooling Degree Days 0 1  
Month to date cooling degree days 37 27  
Year to date cooling degree days 45 32  
Growing Degree Days 5 (Base 50)    
Moisture  
Dew Point 40 °F    
Average Humidity 64    
Maximum Humidity 100    
Minimum Humidity 27    
Precipitation  
Precipitation 0.00 in 0.12 in 1.91 in (1966)
Month to date precipitation 9.98 3.44  
Year to date precipitation 20.69 13.38  
Snow  
Snow 0.00 in - - ()
Month to date snowfall 0.0  
Since 1 September snowfall 27.0  
Snow Depth 0.00 in    
Sea Level Pressure  
Sea Level Pressure 30.09 in    
Wind  
Wind Speed 4 mph (East)    
Max Wind Speed 10 mph    
Max Gust Speed 16 mph    
Visibility 5 miles    
Events Fog    
T = Trace of Precipitation, MM = Missing Value Source: NWS Daily Summary

Daily Weather History Graph

Daily Weather History Graph

Search for Another Location

Airport or City:

Astronomy

Apr. 30, 2011 Rise Set
Actual Time 6:34 AM EDT 8:20 PM EDT
Civil Twilight 6:06 AM EDT 8:49 PM EDT
Nautical Twilight 5:32 AM EDT 9:23 PM EDT
Astronomical Twilight 4:55 AM EDT 10:00 PM EDT
Moon 4:53 AM EDT (4/30) 6:12 PM EDT (4/30)
Length of Visible Light 14h 42m
Length of Day
13h 45m
Waning Crescent, 6% of the Moon is Illuminated
Apr 30
Waning Crescent
May 3
New
May 10
First Quarter
May 17
Full
May 24
Last Quarter

Hourly Weather History & Observations

Time (EDT) Temp. Windchill Dew Point Humidity Pressure Visibility Wind Dir Wind Speed Gust Speed Precip Events Conditions
12:51 AM 44.1 °F - 43.0 °F 96% 30.10 in 5.0 mi Calm Calm - N/A   Clear
1:51 AM 44.1 °F - 42.1 °F 93% 30.09 in 3.0 mi Calm Calm - N/A   Clear
1:54 AM 42.8 °F - 42.8 °F 100% 30.09 in 0.8 mi Calm Calm - N/A   Clear
1:57 AM 42.8 °F - 41.0 °F 93% 30.09 in 0.2 mi Calm Calm - N/A Fog Fog
2:07 AM 42.8 °F - 41.0 °F 93% 30.09 in 0.5 mi Calm Calm - N/A Fog Fog
2:15 AM 42.8 °F - 41.0 °F 93% 30.09 in 0.2 mi Calm Calm - N/A Fog Fog
2:21 AM 42.8 °F - 42.8 °F 100% 30.09 in 1.0 mi Calm Calm - N/A   Mist
2:23 AM 42.8 °F - 42.8 °F 100% 30.09 in 2.0 mi Calm Calm - N/A   Partly Cloudy
2:40 AM 41.0 °F 39.0 °F 39.2 °F 93% 30.08 in 0.5 mi East 3.5 mph - N/A Fog Fog
2:51 AM 41.0 °F - 41.0 °F 100% 30.08 in 0.5 mi Calm Calm - N/A Fog Fog
2:58 AM 39.2 °F - 39.2 °F 100% 30.08 in 2.0 mi Calm Calm - N/A   Partly Cloudy
3:07 AM 42.8 °F - 41.0 °F 93% 30.08 in 3.0 mi Calm Calm - N/A   Clear
3:45 AM 41.0 °F - 39.2 °F 93% 30.09 in 1.8 mi Calm Calm - N/A   Clear
3:51 AM 39.9 °F - 39.9 °F 100% 30.09 in 0.5 mi Calm Calm - N/A Fog Fog
4:16 AM 39.2 °F 37.0 °F 37.4 °F 93% 30.10 in 0.5 mi ENE 3.5 mph - N/A Fog Fog
4:51 AM 39.0 °F - 37.9 °F 96% 30.10 in 0.5 mi Calm Calm - N/A Fog Fog
4:58 AM 39.2 °F - 39.2 °F 100% 30.11 in 0.2 mi Calm Calm - N/A Fog Fog
5:22 AM 39.2 °F - 37.4 °F 93% 30.11 in 5.0 mi Calm Calm - N/A   Partly Cloudy
5:51 AM 37.4 °F - 37.4 °F 100% 30.12 in 5.0 mi Calm Calm - N/A   Partly Cloudy
5:53 AM 37.4 °F - 37.4 °F 100% 30.12 in 0.2 mi Calm Calm - N/A Fog Fog
5:59 AM 37.4 °F - 37.4 °F 100% 30.12 in 0.2 mi Calm Calm - N/A Fog Fog
6:17 AM 39.2 °F - 37.4 °F 93% 30.13 in 0.2 mi Calm Calm - N/A Fog Fog
6:27 AM 37.4 °F - 37.4 °F 100% 30.13 in 1.2 mi Calm Calm - N/A   Mostly Cloudy
6:29 AM 39.2 °F - 37.4 °F 93% 30.13 in 2.5 mi Calm Calm - N/A   Scattered Clouds
6:36 AM 39.2 °F 37.0 °F 37.4 °F 93% 30.13 in 4.0 mi East 3.5 mph - N/A   Partly Cloudy
6:51 AM 39.0 °F - 39.0 °F 100% 30.14 in 1.8 mi Calm Calm - N/A   Clear
6:57 AM 39.2 °F - 39.2 °F 100% 30.14 in 5.0 mi Calm Calm - N/A   Clear
7:27 AM 39.2 °F - 39.2 °F 100% 30.15 in 2.5 mi Calm Calm - N/A   Clear
7:42 AM 41.0 °F 39.0 °F 41.0 °F 100% 30.15 in 4.0 mi East 3.5 mph - N/A   Clear
7:51 AM 41.0 °F 39.0 °F 41.0 °F 100% 30.15 in 7.0 mi East 3.5 mph - N/A   Clear
8:51 AM 46.0 °F 44.8 °F 44.1 °F 93% 30.16 in 10.0 mi East 3.5 mph - N/A   Clear
9:51 AM 53.1 °F - 44.1 °F 71% 30.16 in 10.0 mi ESE 9.2 mph - N/A   Clear
10:51 AM 57.2 °F - 41.0 °F 55% 30.16 in 10.0 mi SE 6.9 mph - N/A   Clear
11:51 AM 61.0 °F - 37.0 °F 41% 30.17 in 10.0 mi ESE 6.9 mph - N/A   Clear
12:51 PM 64.0 °F - 42.1 °F 45% 30.14 in 10.0 mi East 5.8 mph - N/A   Clear
1:51 PM 66.9 °F - 39.9 °F 37% 30.10 in 10.0 mi East 9.2 mph - N/A   Clear
2:51 PM 71.1 °F - 41.0 °F 34% 30.07 in 10.0 mi East 6.9 mph - N/A   Clear
3:51 PM 73.0 °F - 37.9 °F 28% 30.04 in 10.0 mi NE 4.6 mph - N/A   Clear
4:51 PM 73.9 °F - 37.0 °F 26% 30.01 in 10.0 mi ENE 4.6 mph - N/A   Clear
5:51 PM 73.0 °F - 37.9 °F 28% 30.00 in 10.0 mi ENE 6.9 mph - N/A   Clear
6:51 PM 73.0 °F - 41.0 °F 31% 29.99 in 10.0 mi ESE 3.5 mph - N/A   Clear
7:51 PM 68.0 °F - 39.9 °F 36% 29.99 in 10.0 mi ENE 4.6 mph - N/A   Clear
8:51 PM 64.9 °F - 39.9 °F 40% 30.00 in 10.0 mi ENE 4.6 mph - N/A   Clear
9:51 PM 64.0 °F - 42.1 °F 45% 30.01 in 10.0 mi Calm Calm - N/A   Mostly Cloudy
10:51 PM 60.1 °F - 43.0 °F 53% 30.01 in 10.0 mi East 4.6 mph - N/A   Clear
11:51 PM 57.9 °F - 43.0 °F 58% 30.00 in 10.0 mi East 4.6 mph - N/A   Mostly Cloudy